www.pogodaiklimat.ru

Погода и климат >> Архив погоды >> Россия >> Саратовская область >> Александров Гай


АРХИВ ПОГОДЫ в Александровом Гае

Время (UTC), дата Ветер
(напр.,м/с)
 
Видим.   Явления Облачность Т
(С)
Тd
(С)
f
(%)
Тe
(С)
Тes
(С)
Комфортность P
(гПа)
Po
(гПа)
Тmin
(С)
Tmax
(С)
R
(мм)
R24
(мм)
S
(см)
21 16.05 З 2 10 км 5/0
[Ac cast]
+19.5 +15.8 79 +22 +22 комфорт 1013.2 1010.3
00 17.05 С 3 10 км {ливн. осадки} 4/0
[Ac cast Ci fib]
+16.6 +14.9 90 +16 +16 тепло 1013.5 1010.6
03 17.05 С 6-10
{10}
10 км 8/1 1000 м
[Cu med, cong Ac As Ci fib]
+15.8 +13.5 86 +14 +15 по сезону 1015.3 1012.3 +15.6 0.0
06 17.05 С 6-10
{11}
10 км 6/3 1000 м
[Cu med, cong]
+18.5 +13.3 72 +19 +21 тепло 1016.2 1013.3
09 17.05 СВ 6-10
{11}
10 км 6/4 1000 м
[Cu hum Ac cuf]
+19.7 +11.4 59 +21 +24 комфорт 1016.9 1014.0
12 17.05 С 6
{11}
10 км 1/0
[Ci fib]
+20.3 +4.7 36 +21 +24 комфорт 1016.7 1013.8
15 17.05 СВ 5
{10}
10 км 1/0
[Ci fib]
+18.4 +3.9 38 +18 +19 по сезону 1017.0 1014.0 +20.9
18 17.05 СВ 3 10 км 1/0
[Ci fib]
+12.0 +3.9 58 +11 +11 прохладно 1017.7 1014.7
21 17.05 СВ 3 10 км 1/0
[Ci fib]
+10.4 +3.2 61 +9 +9 прохладно 1017.4 1014.4
00 18.05 В 1 10 км 1/0
[Ci fib]
+5.9 +3.9 87 +5 +5 прохладно 1017.7 1014.6
03 18.05 ЮВ 1 10 км 1/0
[Ci fib]
+10.7 +4.5 65 +11 +13 прохладно 1018.3 1015.3 +4.9
06 18.05 З 1 10 км 1/0
[Ci fib]
+17.5 +2.8 37 +19 +32 опасность
простуды
1017.2 1014.2
09 18.05 З 3 10 км 1/0
[Ci fib]
+20.0 +3.6 34 +21 +34 комфорт 1015.8 1012.9
12 18.05 З 3 10 км 1/0
[Ci fib]
+22.4 +4.4 31 +23 +31 комфорт 1013.6 1010.7
15 18.05 СЗ 3 10 км 1/0
[Ci fib]
+21.3 +2.7 29 +21 +22 комфорт 1012.3 1009.4 +23.0
18 18.05 З 1 10 км 1/0
[Ci fib]
+13.3 +5.1 58 +14 +14 по сезону 1012.4 1009.4
21 18.05 З 2 10 км ясно +10.8 +5.6 70 +10 +10 прохладно 1011.5 1008.5
00 19.05 З 2 10 км ясно +9.1 +4.6 73 +8 +8 по сезону 1011.1 1008.1
03 19.05 С 2 10 км 6/0
[Ac As Ci fib]
+11.4 +6.6 72 +10 +12 прохладно 1011.2 1008.2 +8.5
06 19.05 СВ 3 10 км ясно +19.8 +6.0 40 +21 +30 комфорт 1011.8 1008.9
09 19.05 С 3 10 км 3/3 1000 м
[Cu med, cong]
+22.7 +3.9 29 +23 +32 комфорт 1011.3 1008.4
12 19.05 СЗ 3 10 км 3/3 1000 м
[Cu hum]
+23.3 +2.6 26 +23 +29 комфорт 1010.5 1007.6
15 19.05 З 3 10 км 3/1 1000 м
[Cu hum Ac As]
+21.9 +1.3 26 +22 +22 комфорт 1009.9 1007.0 +23.6
18 19.05 СВ 4
{11}
10 км 3/0
[Ac trans]
+15.0 +5.6 53 +14 +14 по сезону 1011.7 1008.7
21 19.05 СВ 3
{11}
10 км ясно +9.3 +2.1 61 +7 +7 холодно 1014.5 1011.4
00 20.05 СВ 3 10 км ясно +4.9 +0.6 74 +2 +2 очень
холодно
1016.0 1012.9
03 20.05 СВ 3 10 км ясно +6.9 +1.2 67 +4 +6 очень
холодно
1017.7 1014.6 +3.3
06 20.05 С 4 10 км 1/0
[Ci fib]
+12.8 +0.7 44 +11 +19 холодно 1018.8 1015.8
09 20.05 С 4
{11}
10 км 4/3 1000 м
[Cu med, cong Ci sp]
+14.9 +1.2 39 +14 +22 холодно 1018.8 1015.8
12 20.05 С 5
{12}
10 км 4/3 1000 м
[Cu med, cong Ci sp]
+16.1 +0.1 34 +15 +19 холодно 1018.4 1015.5
15 20.05 С 3 10 км 6/4 1000 м
[Cu med, cong Ci sp]
+15.1 -0.1 35 +15 +15 прохладно 1018.5 1015.5 +17.2
18 20.05 С 1 10 км 8/8 840 м
[Sc diur, vesp]
+12.8 +1.7 47 +13 +13 по сезону 1019.2 1016.7
21 20.05 З 1 10 км ясно +5.6 +0.7 71 +5 +5 очень
холодно
1020.0 1016.9
00 21.05 СЗ 2 10 км 1/0
[Ac As]
+4.5 0.0 73 +2 +2 очень
холодно
1020.6 1017.5
03 21.05 СЗ 2 10 км ясно +7.3 +2.3 71 +5 +8 очень
холодно
1022.0 1018.9 +3.4
06 21.05 С 3 10 км 3/1 1000 м
[Cu med, cong Ci fib]
+15.7 +2.8 42 +15 +24 прохладно 1022.5 1019.5
09 21.05 СЗ 4
{10}
10 км 8/4 1000 м
[Cu med, cong Ac cuf Ci sp]
+18.7 +0.9 30 +19 +23 прохладно 1022.3 1019.4
12 21.05 СЗ 3
{10}
10 км 8/5 1000 м
[Cu med, cong Ac cuf]
+19.3 +0.1 28 +20 +22 прохладно 1021.7 1018.8
15 21.05 СЗ 2 10 км 3/1 1000 м
[Cu hum Ci sp]
+18.9 +0.4 29 +20 +21 по сезону 1021.0 1018.0 +20.1
18 21.05 ЮВ 2 10 км 1/0
[Ci fib]
+11.3 +3.0 57 +10 +10 холодно 1021.1 1018.1
21 21.05 Ю 3 10 км 1/0
[Ci fib]
+8.7 +2.6 66 +6 +6 очень
холодно
1021.3 1018.2
00 22.05 ЮЗ 3 10 км ясно +6.3 +2.5 77 +3 +3 очень
холодно
1020.8 1017.7
03 22.05 ЮЗ 5 10 км 4/0
[Ci fib]
+12.3 +3.3 54 +10 +11 холодно 1020.5 1017.5 +5.6
06 22.05 З 6-12
{12}
10 км 4/0
[Ci fib]
+20.2 +2.4 31 +20 +25 тепло 1020.1 1017.1
09 22.05 ЮЗ 5
{12}
10 км 4/0
[Ci fib]
+24.1 +3.9 27 +24 +32 комфорт 1018.9 1016.0
12 22.05 ЮЗ 5
{10}
10 км 4/0
[Ci fib]
+24.8 +3.3 25 +24 +29 комфорт 1017.4 1014.5
15 22.05 ЮЗ 4
{12}
10 км 4/0
[Ci fib]
+23.3 +3.3 27 +23 +24 комфорт 1016.2 1013.3 +25.3
18 22.05 Ю 2 10 км 6/0
[Ac As Ci sp]
+15.6 +4.5 48 +16 +16 по сезону 1016.2 1013.2
21 22.05 Ю 2 10 км 6/0
[Ac As Ci sp]
+12.1 +4.4 59 +11 +11 прохладно 1015.5 1012.4
00 23.05 ЮЗ 2 10 км 4/0
[Ci sp]
+7.9 +3.7 75 +6 +6 прохладно 1015.0 1011.9
03 23.05 ЮЗ 3 10 км 8/0
[Ac As Ci sp]
+12.4 +6.7 68 +11 +12 прохладно 1013.8 1010.8 +6.7
06 23.05 ЮЗ 5 10 км 8/1 1000 м
[Cu hum Ci fib]
+20.1 +7.6 44 +21 +26 комфорт 1013.0 1010.1
09 23.05 ЮЗ 5
{10}
10 км 8/3 1000 м
[Cu hum Ci sp]
+22.9 +6.0 33 +23 +29 комфорт 1011.1 1008.2
12 23.05 ЮЗ 6
{10}
10 км 9/3 1000 м
[Cu hum Ac As Ci sp]
+22.5 +5.5 33 +23 +24 комфорт 1009.3 1006.4
15 23.05 ЮЗ 4 10 км 9/8 900 м
[Sc Ci sp]
+19.8 +8.8 49 +21 +21 комфорт 1007.9 1005.0 +23.9
18 23.05 СВ 1 10 км 9/9 600 м
[Sc]
+16.8 +10.7 67 +18 +18 по сезону 1006.9 1003.9

 

Местоположение метеостанции Александров Гай (Саратовская область, Россия): широта 50.15 долгота 48.55 высота над уровнем моря 25 м.

В архиве по умолчанию представлена погода в Александровом Гае за последнюю неделю. Архивные данные за месяц целиком и за предыдущие месяцы, начиная с января 2011 года, Вы можете получить, выбрав интересующий диапазон дат из раскрывающегося списка и нажав кнопку "Ввод!".


*Определитесь, кто Вы:
робот инопланетянин человек

Внимание! Время в таблицах - всемирное. Для получения местного времени необходимо прибавить поправку, которая равна 4 ч.

Смотрите также архив погоды в соседних городах и на ближайших метеорологических станциях:

Погода в Новоузенске (Саратовская область, Россия) (43 км)
Погода в Казталовке (Западно-Казахстанская область, Казахстан) (45 км)
Погода в Жалпактале (Западно-Казахстанская область, Казахстан) (85 км)
Погода в Палласовке (Волгоградская область, Россия) (120 км)
Погода в Жанаказане (Западно-Казахстанская область, Казахстан) (133 км)
Погода в Ершове (Саратовская область, Россия) (137 км)
Погода в Красном Куте (Саратовская область, Россия) (143 км)
Погода в Озинках (Саратовская область, Россия) (143 км)
Погода в Жанибеке (Западно-Казахстанская область, Казахстан) (151 км)
Погода в Жангала (Западно-Казахстанская область, Казахстан) (163 км)

Пояснения к столбцам:

Ветер - указаны скорость ветра в м/с - средняя за 10 мин, порывы в срок и между сроками (в фигурных скобках) и направление, откуда дует ветер: С - северный, СВ - северо-восточный, В - восточный, ЮВ - юго-восточный, Ю - южный, ЮЗ - юго-западный, З - западный, СЗ - северо-западный.
Видимость - горизонтальная дальность видимости в метрах или километрах. При видимости от 1 до 10 км при отсутствии осадков обычно наблюдается дымка, при ухудшении видимости до 1 км и менее - туман. В сухую погоду видимость может ухудшаться дымом, пылью или мглою.
Явления - указаны атмосферные явления, наблюдавшиеся в срок или в последний час перед сроком; фигурными скобками обозначены явления, наблюдавшиеся между сроками (за 1-3 часа до срока); квадратными скобками обозначены град или гололедные отложения с указанием их диаметра в мм.
Облачность - указаны через наклонную черту общая и нижняя облачность в баллах и высота нижней границы облаков в метрах; квадратными скобками обозначены формы облаков: Ci - перистые, Cs - перисто-слоистые, Cc - перисто-кучевые, Ac - высококучевые, As - высокослоистые, Sc - слоисто-кучевые, Ns - слоисто-дождевые, Cu - кучевые, Cb - кучево-дождевые. Подробнее классификацию облаков см. в Атласе облаков (PDF).
T - Температура воздуха - температура, измеренная на высоте 2 м над землей.
Td - Температура точки росы - температура, при понижении до которой содержащийся в воздухе водяной пар достигнет насыщения.
f - Относительная влажность воздуха - влажноcть воздуха, измеренная на высоте 2 м над землей.
Te - Эффективная температура - температура, которую ощущает одетый по сезону человек в тени. Характеристика душности погоды. При расчете учитывается влияние влажности воздуха и скорости ветра на теплоощущения человека.
Tes - Эффективная температура на солнце - температура, которую ощущает человек, с поправкой на солнечный нагрев. Характеристика знойности погоды. Зависит от высоты солнца над горизонтом, облачности и скорости ветра. Ночью, в пасмурную погоду, а также при ветре 12 м/с и более поправка равна нулю.
P - Атмосферное давление - приведенное к уровню моря атмосферное давление.
Po - Атмосферное давление - измеренное на уровне метеостанции атмосферное давление.
Tmin - Минимальная температура - минимум температуры воздуха на высоте 2 м над землей.
Tmax - Максимальная температура - максимум температуры воздуха на высоте 2 м над землей.
R - Количество осадков - Количество выпавших осадков за период времени, мм. При наведении курсора мыши на число - период времени, за который выпало указанное количество осадков.
R24 - Количество осадков - Количество выпавших осадков за 24 часа, мм.
S - Снежный покров - Высота снежного покрова, см. При наведении курсора мыши на число - состояние снежного покрова и степень покрытия местности в баллах.